COOK1: Arkansas River Nr Coolidge, KS

                                SHEF ID:       COOK1     ARKANSAS R NR COOLIDGE, KS
STATION TYPE:
Regulating: Stage = 8.00, Flow = 2050

PRECIP STAGE STAGE(2) RIV-FLOW WTR-TEMP CONDUCT BAT-LOAD
in ft ft cfs F umho/cm volt
Ccp-Rev Ccp-Rev Ccp-Rev Ccp-Rev Ccp-Rev Ccp-Rev Ccp-Rev
(America/Chicago)
07/07 00:00 0.00 2.39 2.51 45 70.05 6305 12.95
07/07 01:00 0.00 2.40 2.51 46 69.21 6305 12.89
07/07 02:00 0.03 2.41 2.55 47 68.13 6260 12.89
07/07 03:00 0.00 2.43 2.58 48 67.17 6080 12.89
07/07 04:00 0.00 2.42 2.58 47 66.22 6032 12.89
07/07 05:00 0.00 2.44 2.59 49 65.43 6048 12.83
07/07 06:00 0.00 2.43 2.58 48 64.38 6066 12.83
07/07 07:00 0.00 2.43 2.60 48 64.15 6093 12.77
07/07 08:00 0.00 2.45 2.62 50 63.93 6088 12.77
07/07 09:00 0.00 2.45 2.60 50 64.29 6062 12.95
07/07 10:00 0.00 2.46 2.60 51 64.58 6016 12.95
07/07 11:00 0.00 2.46 2.62 51 64.78 5956 12.95
07/07 12:00 0.00 2.46 2.61 51 65.93 5909 13.48
07/07 13:00 0.00 2.46 2.62 51 66.76 5872 13.53
07/07 14:00 0.00 2.48 2.62 52 68.13 5845 13.65
07/07 15:00 0.00 2.48 2.62 52 69.93 5818 13.65
07/07 16:00 0.00 2.48 2.64 52 72.97 5796 13.65
07/07 17:00 0.00 2.49 2.60 53 75.51 5776 13.71
07/07 18:00 0.00 2.48 2.61 52 75.88 5776 13.42
07/07 19:00 0.00 2.50 2.65 54 74.80 5769 13.24
07/07 20:00 0.00 2.49 2.65 53 73.31 5756 13.18
07/07 21:00 0.00 2.49 2.65 53 71.94 5751 13.07
07/07 22:00 0.00 2.49 2.64 53 70.63 5746 13.00
07/07 23:00 ---- ---- ---- ---- ---- ---- ----
Data processed at Mon 08Jul2024 04:30 GMT

Parsing this webpage?

Checkout our new Data API! CWMSDataAPI (CDA)

Timeseries IDs (TSIDs)

TSIDs used from left to right in the data table
COOL.Precip-Inc.Total.1Hour.1Hour.Ccp-Rev
COOL.Stage.Inst.1Hour.0.Ccp-Rev
COOL.Stage-Alt.Inst.1Hour.0.Ccp-Rev
COOL.Flow.Inst.1Hour.0.Ccp-Rev
COOL.Temp-Water.Inst.1Hour.0.Ccp-Rev
COOL.Cond.Inst.1Hour.0.Ccp-Rev
COOL.Volt-Battery Load.Inst.1Hour.0.Ccp-Rev

                            

All information presented herein is the property of the government of the United States of America and may be revised or deleted at any time without prior notice. Dissemination of this information without the expressed written consent of the Public Affairs Office, Tulsa District U.S. Army Corps of Engineers is strictly prohibited. These data are gathered electronically and, as presented, have NOT undergone any form of quality control. These data are NOT guaranteed to be valid or correct.